Time,TemperatureF,DewpointF,PressureIn,WindDirection,WindDirectionDegrees,WindSpeedMPH,WindSpeedGustMPH,Humidity,HourlyPrecipIn,Conditions,Clouds,dailyrainin,SoftwareType,DateUTC
2013-09-05 00:05:00,51.4,44.0,29.98,SE,145,0.0,2.0,75,0.00,,,0.00,weatherlink.com 1.10,2013-09-05 06:05:00,
2013-09-05 00:20:00,51.7,44.0,29.99,SE,139,0.0,4.0,74,0.00,,,0.00,weatherlink.com 1.10,2013-09-05 06:20:00,
2013-09-05 00:35:00,50.5,44.0,29.98,SSE,159,0.0,2.0,77,0.00,,,0.00,weatherlink.com 1.10,2013-09-05 06:35:00,
2013-09-05 00:50:00,49.1,43.0,29.99,SSE,159,0.0,1.0,80,0.00,,,0.00,weatherlink.com 1.10,2013-09-05 06:50:00,
2013-09-05 01:05:00,48.0,43.0,30.00,SSE,152,0.0,2.0,83,0.00,,,0.00,weatherlink.com 1.10,2013-09-05 07:05:00,
2013-09-05 01:20:00,47.1,42.0,30.00,SSE,151,0.0,1.0,83,0.00,,,0.00,weatherlink.com 1.10,2013-09-05 07:20:00,
2013-09-05 01:35:00,46.2,42.0,30.00,SSE,152,0.0,0.0,84,0.00,,,0.00,weatherlink.com 1.10,2013-09-05 07:35:00,
2013-09-05 01:50:00,45.3,41.0,30.00,SSE,152,0.0,0.0,85,0.00,,,0.00,weatherlink.com 1.10,2013-09-05 07:50:00,
2013-09-05 02:05:00,44.7,41.0,30.00,SSE,152,0.0,1.0,86,0.00,,,0.00,weatherlink.com 1.10,2013-09-05 08:05:00,
2013-09-05 02:20:00,44.6,41.0,30.00,SSE,152,0.0,1.0,88,0.00,,,0.00,weatherlink.com 1.10,2013-09-05 08:20:00,
2013-09-05 02:35:00,45.1,42.0,30.00,SSE,152,0.0,1.0,87,0.00,,,0.00,weatherlink.com 1.10,2013-09-05 08:35:00,
2013-09-05 02:50:00,45.5,42.0,30.00,SSE,152,0.0,1.0,88,0.00,,,0.00,weatherlink.com 1.10,2013-09-05 08:50:00,
2013-09-05 03:05:00,45.6,42.0,29.99,SSE,152,0.0,0.0,87,0.00,,,0.00,weatherlink.com 1.10,2013-09-05 09:05:00,
2013-09-05 03:20:00,45.7,42.0,29.99,SSE,152,0.0,0.0,88,0.00,,,0.00,weatherlink.com 1.10,2013-09-05 09:20:00,
2013-09-05 03:35:00,47.3,43.0,29.98,SSE,152,0.0,2.0,85,0.00,,,0.00,weatherlink.com 1.10,2013-09-05 09:35:00,
2013-09-05 03:50:00,49.1,44.0,29.98,SSE,151,1.0,2.0,81,0.00,,,0.00,weatherlink.com 1.10,2013-09-05 09:50:00,
2013-09-05 04:05:00,50.1,43.0,29.99,SSE,151,1.0,2.0,77,0.00,,,0.00,weatherlink.com 1.10,2013-09-05 10:05:00,
2013-09-05 04:20:00,49.8,43.0,29.98,SSE,150,0.0,2.0,78,0.00,,,0.00,weatherlink.com 1.10,2013-09-05 10:20:00,
2013-09-05 04:35:00,49.0,43.0,29.98,SE,142,2.0,2.0,79,0.00,,,0.00,weatherlink.com 1.10,2013-09-05 10:35:00,
2013-09-05 04:50:00,48.3,43.0,29.98,SE,142,1.0,2.0,81,0.00,,,0.00,weatherlink.com 1.10,2013-09-05 10:50:00,
2013-09-05 05:05:00,47.1,43.0,29.98,SE,142,0.0,1.0,84,0.00,,,0.00,weatherlink.com 1.10,2013-09-05 11:05:00,
2013-09-05 05:20:00,46.7,43.0,29.98,SE,142,0.0,2.0,86,0.00,,,0.00,weatherlink.com 1.10,2013-09-05 11:20:00,
2013-09-05 05:35:00,46.4,43.0,29.98,SE,142,0.0,1.0,87,0.00,,,0.00,weatherlink.com 1.10,2013-09-05 11:35:00,
2013-09-05 05:50:00,46.1,43.0,29.98,SE,143,0.0,1.0,87,0.00,,,0.00,weatherlink.com 1.10,2013-09-05 11:50:00,
2013-09-05 06:05:00,45.7,43.0,29.98,SE,143,0.0,1.0,89,0.00,,,0.00,weatherlink.com 1.10,2013-09-05 12:05:00,
2013-09-05 06:20:00,45.8,43.0,29.99,SE,143,0.0,1.0,89,0.00,,,0.00,weatherlink.com 1.10,2013-09-05 12:20:00,
2013-09-05 06:35:00,46.1,43.0,29.99,SE,142,0.0,1.0,89,0.00,,,0.00,weatherlink.com 1.10,2013-09-05 12:35:00,
2013-09-05 06:50:00,46.3,43.0,29.99,SE,142,0.0,0.0,89,0.00,,,0.00,weatherlink.com 1.10,2013-09-05 12:50:00,
2013-09-05 07:06:00,46.7,44.0,30.00,SE,142,0.0,0.0,89,0.00,,,0.00,weatherlink.com 1.10,2013-09-05 13:06:00,
2013-09-05 07:21:00,47.4,44.0,29.99,SE,145,0.0,0.0,89,0.00,,,0.00,weatherlink.com 1.10,2013-09-05 13:21:00,
2013-09-05 07:36:00,48.9,46.0,29.99,SE,145,0.0,0.0,89,0.00,,,0.00,weatherlink.com 1.10,2013-09-05 13:36:00,
2013-09-05 07:51:00,50.3,46.0,30.00,SE,145,0.0,1.0,85,0.00,,,0.00,weatherlink.com 1.10,2013-09-05 13:51:00,
2013-09-05 08:06:00,50.9,46.0,30.00,SE,145,0.0,1.0,84,0.00,,,0.00,weatherlink.com 1.10,2013-09-05 14:06:00,
2013-09-05 08:22:00,51.2,47.0,30.00,SE,145,0.0,0.0,86,0.00,,,0.00,weatherlink.com 1.10,2013-09-05 14:22:00,
2013-09-05 08:36:00,51.9,48.0,30.00,SE,145,0.0,0.0,87,0.00,,,0.00,weatherlink.com 1.10,2013-09-05 14:36:00,
2013-09-05 08:51:00,53.1,48.0,30.00,SSE,155,0.0,0.0,83,0.00,,,0.00,weatherlink.com 1.10,2013-09-05 14:51:00,
2013-09-05 09:06:00,54.7,49.0,30.00,SSE,156,1.0,1.0,81,0.00,,,0.00,weatherlink.com 1.10,2013-09-05 15:06:00,
2013-09-05 09:21:00,56.2,49.0,30.00,SSE,165,0.0,1.0,78,0.00,,,0.00,weatherlink.com 1.10,2013-09-05 15:21:00,
2013-09-05 09:36:00,57.5,49.0,30.00,SSE,162,0.0,0.0,73,0.00,,,0.00,weatherlink.com 1.10,2013-09-05 15:36:00,
2013-09-05 09:51:00,59.7,47.0,29.99,SSE,150,0.0,1.0,63,0.00,,,0.00,weatherlink.com 1.10,2013-09-05 15:51:00,
2013-09-05 10:06:00,62.6,46.0,29.98,South,190,2.0,2.0,56,0.00,,,0.00,weatherlink.com 1.10,2013-09-05 16:06:00,
2013-09-05 10:21:00,64.1,45.0,29.98,SSE,167,0.0,3.0,50,0.00,,,0.00,weatherlink.com 1.10,2013-09-05 16:21:00,
2013-09-05 10:36:00,65.0,44.0,29.98,SSW,193,2.0,3.0,47,0.00,,,0.00,weatherlink.com 1.10,2013-09-05 16:36:00,
2013-09-05 10:51:00,66.1,42.0,29.97,South,172,0.0,4.0,42,0.00,,,0.00,weatherlink.com 1.10,2013-09-05 16:51:00,
2013-09-05 11:06:00,67.4,41.0,29.97,South,188,0.0,3.0,38,0.00,,,0.00,weatherlink.com 1.10,2013-09-05 17:06:00,
2013-09-05 11:21:00,68.9,41.0,29.96,South,188,1.0,4.0,36,0.00,,,0.00,weatherlink.com 1.10,2013-09-05 17:21:00,
2013-09-05 11:36:00,69.6,41.0,29.95,SSW,193,2.0,3.0,35,0.00,,,0.00,weatherlink.com 1.10,2013-09-05 17:36:00,
2013-09-05 11:51:00,70.0,40.0,29.95,South,187,1.0,4.0,33,0.00,,,0.00,weatherlink.com 1.10,2013-09-05 17:51:00,
2013-09-05 12:07:00,71.0,40.0,29.95,SSW,203,2.0,3.0,32,0.00,,,0.00,weatherlink.com 1.10,2013-09-05 18:07:00,
2013-09-05 12:22:00,72.1,41.0,29.94,SSE,165,0.0,4.0,33,0.00,,,0.00,weatherlink.com 1.10,2013-09-05 18:22:00,
2013-09-05 12:37:00,72.9,40.0,29.93,SSW,194,2.0,5.0,31,0.00,,,0.00,weatherlink.com 1.10,2013-09-05 18:37:00,
2013-09-05 12:52:00,74.1,44.0,29.93,West,267,5.0,5.0,34,0.00,,,0.00,weatherlink.com 1.10,2013-09-05 18:52:00,
2013-09-05 13:07:00,74.5,43.0,29.92,SSE,148,0.0,2.0,33,0.00,,,0.00,weatherlink.com 1.10,2013-09-05 19:07:00,
2013-09-05 13:22:00,74.5,40.0,29.92,SSE,148,1.0,4.0,29,0.00,,,0.00,weatherlink.com 1.10,2013-09-05 19:22:00,
2013-09-05 13:37:00,72.4,42.0,29.92,SSE,150,1.0,2.0,33,0.00,,,0.00,weatherlink.com 1.10,2013-09-05 19:37:00,
2013-09-05 13:52:00,71.9,43.0,29.93,SSE,153,0.0,2.0,36,0.00,,,0.00,weatherlink.com 1.10,2013-09-05 19:52:00,
2013-09-05 14:07:00,70.4,43.0,29.92,SSE,165,1.0,2.0,38,0.00,,,0.00,weatherlink.com 1.10,2013-09-05 20:07:00,
2013-09-05 14:22:00,69.6,43.0,29.92,SSE,167,0.0,1.0,38,0.00,,,0.00,weatherlink.com 1.10,2013-09-05 20:22:00,
2013-09-05 14:37:00,68.3,44.0,29.92,SSE,167,0.0,1.0,41,0.00,,,0.00,weatherlink.com 1.10,2013-09-05 20:37:00,
2013-09-05 14:52:00,67.5,45.0,29.91,SSE,167,0.0,1.0,44,0.00,,,0.00,weatherlink.com 1.10,2013-09-05 20:52:00,
2013-09-05 15:07:00,67.4,46.0,29.91,SSE,167,0.0,1.0,46,0.00,,,0.00,weatherlink.com 1.10,2013-09-05 21:07:00,
2013-09-05 15:22:00,67.3,44.0,29.90,SSE,167,0.0,2.0,43,0.00,,,0.00,weatherlink.com 1.10,2013-09-05 21:22:00,
2013-09-05 15:37:00,68.3,44.0,29.89,South,176,0.0,3.0,41,0.00,,,0.00,weatherlink.com 1.10,2013-09-05 21:37:00,
2013-09-05 15:52:00,68.1,44.0,29.90,South,175,0.0,1.0,42,0.00,,,0.00,weatherlink.com 1.10,2013-09-05 21:52:00,
2013-09-05 16:07:00,67.3,43.0,29.89,South,180,0.0,2.0,42,0.00,,,0.00,weatherlink.com 1.10,2013-09-05 22:07:00,
2013-09-05 16:22:00,68.8,39.0,29.88,SSW,193,0.0,2.0,34,0.00,,,0.00,weatherlink.com 1.10,2013-09-05 22:22:00,
2013-09-05 16:37:00,69.1,39.0,29.88,SSE,151,1.0,3.0,33,0.00,,,0.00,weatherlink.com 1.10,2013-09-05 22:37:00,
2013-09-05 16:52:00,68.7,36.0,29.88,SSE,148,0.0,1.0,30,0.00,,,0.00,weatherlink.com 1.10,2013-09-05 22:52:00,
2013-09-05 17:07:00,67.9,31.0,29.88,SSE,163,1.0,4.0,25,0.00,,,0.00,weatherlink.com 1.10,2013-09-05 23:07:00,
2013-09-05 17:22:00,68.1,35.0,29.89,SSE,160,0.0,1.0,29,0.00,,,0.00,weatherlink.com 1.10,2013-09-05 23:22:00,
2013-09-05 17:37:00,66.5,38.0,29.89,SSE,159,0.0,1.0,35,0.00,,,0.00,weatherlink.com 1.10,2013-09-05 23:37:00,
2013-09-05 17:52:00,65.2,40.0,29.89,SSE,148,1.0,2.0,40,0.00,,,0.00,weatherlink.com 1.10,2013-09-05 23:52:00,
2013-09-05 18:07:00,65.2,43.0,29.89,SE,143,1.0,4.0,45,0.00,,,0.00,weatherlink.com 1.10,2013-09-06 00:07:00,
2013-09-05 18:22:00,64.7,44.0,29.89,SSE,162,0.0,2.0,48,0.00,,,0.00,weatherlink.com 1.10,2013-09-06 00:22:00,
2013-09-05 18:37:00,63.7,47.0,29.89,SSE,163,0.0,0.0,54,0.00,,,0.00,weatherlink.com 1.10,2013-09-06 00:37:00,
2013-09-05 18:52:00,62.3,47.0,29.89,SSE,163,0.0,1.0,58,0.00,,,0.00,weatherlink.com 1.10,2013-09-06 00:52:00,
2013-09-05 19:07:00,61.0,46.0,29.90,SSE,163,0.0,0.0,58,0.00,,,0.00,weatherlink.com 1.10,2013-09-06 01:07:00,
2013-09-05 19:22:00,59.5,47.0,29.91,SSE,162,0.0,1.0,63,0.00,,,0.00,weatherlink.com 1.10,2013-09-06 01:22:00,
2013-09-05 19:37:00,58.4,47.0,29.91,SSE,162,0.0,1.0,67,0.00,,,0.00,weatherlink.com 1.10,2013-09-06 01:37:00,
2013-09-05 19:52:00,57.7,50.0,29.91,SSE,162,0.0,1.0,76,0.00,,,0.00,weatherlink.com 1.10,2013-09-06 01:52:00,
2013-09-05 20:07:00,55.9,51.0,29.92,SSE,162,0.0,1.0,84,0.01,,,0.01,weatherlink.com 1.10,2013-09-06 02:07:00,
2013-09-05 20:22:00,55.3,51.0,29.93,SSE,162,0.0,0.0,84,0.01,,,0.01,weatherlink.com 1.10,2013-09-06 02:22:00,
2013-09-05 20:37:00,55.1,51.0,29.93,SSE,162,0.0,1.0,86,0.01,,,0.01,weatherlink.com 1.10,2013-09-06 02:37:00,
2013-09-05 20:52:00,54.7,51.0,29.92,SSE,162,0.0,1.0,86,0.01,,,0.01,weatherlink.com 1.10,2013-09-06 02:52:00,
2013-09-05 21:07:00,54.4,51.0,29.93,SSE,162,0.0,0.0,87,0.00,,,0.01,weatherlink.com 1.10,2013-09-06 03:07:00,
2013-09-05 21:22:00,53.9,50.0,29.93,SSE,162,0.0,0.0,86,0.00,,,0.01,weatherlink.com 1.10,2013-09-06 03:22:00,
2013-09-05 21:37:00,53.2,50.0,29.93,SSE,162,0.0,0.0,87,0.00,,,0.01,weatherlink.com 1.10,2013-09-06 03:37:00,
2013-09-05 21:52:00,52.4,48.0,29.93,SSE,162,0.0,1.0,86,0.00,,,0.01,weatherlink.com 1.10,2013-09-06 03:52:00,
2013-09-05 22:07:00,51.2,47.0,29.93,SSE,162,0.0,0.0,85,0.00,,,0.01,weatherlink.com 1.10,2013-09-06 04:07:00,
2013-09-05 22:22:00,50.2,46.0,29.93,SSE,162,0.0,0.0,86,0.00,,,0.01,weatherlink.com 1.10,2013-09-06 04:22:00,
2013-09-05 22:37:00,49.3,45.0,29.92,SSE,162,0.0,1.0,86,0.00,,,0.01,weatherlink.com 1.10,2013-09-06 04:37:00,
2013-09-05 22:52:00,48.6,45.0,29.92,SSE,162,0.0,0.0,87,0.00,,,0.01,weatherlink.com 1.10,2013-09-06 04:52:00,
2013-09-05 23:07:00,48.2,45.0,29.92,SSE,162,0.0,0.0,88,0.00,,,0.01,weatherlink.com 1.10,2013-09-06 05:07:00,
2013-09-05 23:22:00,47.8,45.0,29.92,SSE,162,0.0,1.0,88,0.00,,,0.01,weatherlink.com 1.10,2013-09-06 05:22:00,
2013-09-05 23:37:00,47.7,45.0,29.92,SSE,162,0.0,1.0,89,0.00,,,0.01,weatherlink.com 1.10,2013-09-06 05:37:00,
2013-09-05 23:52:00,47.8,45.0,29.91,South,187,1.0,3.0,88,0.00,,,0.01,weatherlink.com 1.10,2013-09-06 05:52:00,